Location: Northam
(31.6525°S, 116.6655°E)
Time: 20:28:36
(UTC+08:00)

LightSail 2 - Visible Passes

Search period start: 03 August 2020 00:00
Search period end: 13 August 2020 00:00
Orbit: 698 x 714 km, 24.0° (Epoch: 02 August)

Date Brightness Start Highest point End Pass type
(mag) Time Alt. Az. Time Alt. Az. Time Alt. Az.
03 Aug 7.6 05:43:08 10° NNW 05:46:00 15° NNE 05:48:52 10° NE visible
04 Aug 7.7 04:44:28 10° N 04:45:54 11° NNE 04:47:19 10° NE visible
04 Aug 7.0 06:26:31 10° NW 06:30:40 25° NNE 06:34:48 10° ENE visible
05 Aug 7.2 05:26:46 10° NNW 05:30:30 21° NNE 05:34:16 10° ENE visible
06 Aug 7.3 04:30:26 16° NNE 04:30:26 16° NNE 04:33:31 10° ENE visible
06 Aug 6.6 06:10:43 10° NW 06:15:11 30° N 06:19:38 10° ENE visible
07 Aug 6.7 05:12:52 20° NNW 05:14:58 26° NNE 05:19:14 10° ENE visible
08 Aug 7.3 04:16:23 19° NE 04:16:23 19° NE 04:18:43 10° ENE visible
08 Aug 6.4 05:55:12 11° WNW 05:59:41 34° N 06:04:17 10° ENE visible
09 Aug 6.3 04:58:39 30° N 04:59:27 31° N 05:03:58 10° ENE visible
10 Aug 7.6 04:02:03 17° ENE 04:02:03 17° ENE 04:03:33 10° ENE visible
10 Aug 6.2 05:40:52 17° WNW 05:44:09 35° N 05:48:47 10° ENE visible
11 Aug 6.2 04:44:14 34° NNE 04:44:14 34° NNE 04:48:31 10° ENE visible
11 Aug 6.5 06:24:22 10° WNW 06:28:51 30° N 06:33:17 10° NE visible
12 Aug 7.9 03:47:34 13° ENE 03:47:34 13° ENE 03:48:11 10° ENE visible
12 Aug 6.2 05:26:23 23° NW 05:28:35 33° N 05:33:09 10° ENE visible
